Weather History for Detroit Metro, MI

Change the Weather History Date:

Wednesday, February 27, 2013

  Actual Average Record
Temperature  
Mean Temperature 35 °F 31 °F  
Max Temperature 36 °F 39 °F 63 °F (1976)
Min Temperature 33 °F 23 °F -4 °F (1934)
Degree Days  
Heating Degree Days 30 34  
Month to date heating degree days 1020 999  
Since 1 July heating degree days 4255 4519  
Cooling Degree Days 0 0  
Month to date cooling degree days 0 0  
Year to date cooling degree days 0 0  
Moisture  
Dew Point 32 °F    
Average Humidity 91    
Maximum Humidity 100    
Minimum Humidity 82    
Precipitation  
Precipitation 0.38 in 0.08 in 0.99 in (1996)
Month to date precipitation 2.77 1.94  
Year to date precipitation 6.22 3.90  
Snow  
Snow 4.00 in 0.40 in 5.20 in (1984)
Month to date snowfall 22.9 9.9  
Since 1 July snowfall 43.9 33.6  
Snow Depth 2.00 in    
Sea Level Pressure  
Sea Level Pressure 29.52 in    
Wind  
Wind Speed 10 mph (SSE)    
Max Wind Speed 17 mph    
Max Gust Speed 23 mph    
Visibility 3 miles    
Events Fog , Rain , Snow    
T = Trace of Precipitation, MM = Missing Value Source: NWS Daily Summary

Daily Weather History Graph

Daily Weather History Graph

Search for Another Location

Airport:

Trip Planner

Search our weather history database for the weather conditions in past years. The results will help you decide how hot, cold, wet, or windy it might be!

Date:

Astronomy

Feb. 27, 2013 Rise Set
Actual Time 7:11 AM EST 6:21 PM EST
Civil Twilight 6:43 AM EST 6:49 PM EST
Nautical Twilight 6:10 AM EST 7:21 PM EST
Astronomical Twilight 5:38 AM EST 7:54 PM EST
Moon 8:45 PM EST (2/27) 7:43 AM EST (2/27)
Length of Visible Light 12h 06m
Length of Day
11h 09m
Waning Gibbous, 96% of the Moon is Illuminated
Feb 27
Waning Gibbous
Mar 4
Last Quarter
Mar 11
New
Mar 19
First Quarter
Mar 27
Full

Hourly Weather History & Observations

Time (EST) Temp. Windchill Dew Point Humidity Pressure Visibility Wind Dir Wind Speed Gust Speed Precip Events Conditions
12:13 AM 33.8 °F 24.3 °F 32.0 °F 93% 29.49 in 3.0 mi ENE 13.8 mph 23.0 mph 0.01 in Snow Light Snow
12:43 AM 33.8 °F 24.8 °F 32.0 °F 93% 29.48 in 1.0 mi ENE 12.7 mph 23.0 mph 0.01 in Snow Light Snow
12:53 AM 34.0 °F 25.0 °F 32.0 °F 92% 29.49 in 1.0 mi ENE 12.7 mph 20.7 mph 0.02 in Snow Light Snow
1:13 AM 33.8 °F 26.4 °F 32.0 °F 93% 29.48 in 0.8 mi ENE 9.2 mph - 0.03 in Snow Light Snow
1:25 AM 33.8 °F 26.4 °F 32.0 °F 93% 29.48 in 1.0 mi ENE 9.2 mph 18.4 mph 0.04 in Snow Light Snow
1:31 AM 33.8 °F 25.3 °F 32.0 °F 93% 29.47 in 3.0 mi ENE 11.5 mph 18.4 mph 0.04 in Snow Light Snow
1:48 AM 33.8 °F 25.8 °F 33.8 °F 100% 29.47 in 2.5 mi ENE 10.4 mph 18.4 mph 0.04 in Snow Light Snow
1:53 AM 34.0 °F 26.0 °F 33.1 °F 96% 29.49 in 2.5 mi ENE 10.4 mph 18.4 mph 0.04 in Snow Light Snow
2:07 AM 33.8 °F 26.4 °F 33.8 °F 100% 29.47 in 1.2 mi ENE 9.2 mph - 0.02 in Snow Light Snow
2:48 AM 33.8 °F 27.0 °F 33.8 °F 100% 29.46 in 2.5 mi NE 8.1 mph - 0.11 in Rain , Snow Light Snow
2:53 AM 33.8 °F 27.7 °F 33.8 °F 100% 29.46 in 2.5 mi ENE 6.9 mph - N/A Rain , Snow Light Snow
3:20 AM 33.8 °F 27.7 °F 33.8 °F 100% 29.45 in 3.0 mi NE 6.9 mph - 0.02 in Rain , Snow Light Snow
3:53 AM 34.0 °F 28.8 °F 34.0 °F 100% 29.46 in 3.0 mi NE 5.8 mph - 0.03 in Rain Light Rain
3:59 AM 33.8 °F 27.7 °F 33.8 °F 100% 29.44 in 3.0 mi NE 6.9 mph - 0.00 in Rain Light Rain
4:53 AM 35.1 °F 30.1 °F 35.1 °F 100% 29.47 in 3.0 mi ENE 5.8 mph - 0.00 in Rain Light Rain
5:36 AM 35.6 °F - 35.6 °F 100% 29.46 in 0.8 mi Calm Calm - N/A   Overcast
5:47 AM 35.6 °F - 35.6 °F 100% 29.46 in 0.8 mi Calm Calm - 0.00 in   Mist
5:53 AM 35.1 °F - 35.1 °F 100% 29.47 in 0.8 mi Calm Calm - 0.00 in   Mist
6:04 AM 35.6 °F - 35.6 °F 100% 29.46 in 0.5 mi Calm Calm - N/A Fog Fog
6:25 AM 33.8 °F 28.6 °F 33.8 °F 100% 29.47 in 0.2 mi SSE 5.8 mph - N/A Fog Fog
6:36 AM 33.8 °F 29.6 °F 33.8 °F 100% 29.47 in 0.2 mi SSE 4.6 mph - N/A Fog Fog
6:45 AM 33.8 °F 27.7 °F 33.8 °F 100% 29.47 in 0.1 mi South 6.9 mph - N/A Fog Fog
6:53 AM 34.0 °F 27.2 °F 34.0 °F 100% 29.49 in 0.1 mi South 8.1 mph - N/A Fog Fog
7:03 AM 33.8 °F 26.4 °F 33.8 °F 100% 29.48 in 0.2 mi South 9.2 mph - N/A Fog Fog
7:04 AM 33.8 °F 26.4 °F 33.8 °F 100% 29.48 in 0.2 mi South 9.2 mph - N/A Fog Fog
7:13 AM 33.8 °F 27.0 °F 33.8 °F 100% 29.48 in 1.0 mi South 8.1 mph - N/A   Overcast
7:30 AM 33.8 °F 26.4 °F 33.8 °F 100% 29.49 in 2.0 mi South 9.2 mph - N/A   Overcast
7:47 AM 33.8 °F 25.8 °F 33.8 °F 100% 29.50 in 2.5 mi South 10.4 mph - N/A   Overcast
7:53 AM 34.0 °F 26.6 °F 34.0 °F 100% 29.52 in 2.5 mi South 9.2 mph - N/A   Overcast
8:34 AM 33.8 °F 25.8 °F 33.8 °F 100% 29.52 in 6.0 mi South 10.4 mph - N/A   Overcast
8:53 AM 34.0 °F 25.5 °F 33.1 °F 96% 29.55 in 6.0 mi South 11.5 mph - N/A   Overcast
9:53 AM 35.6 °F 27.5 °F 33.8 °F 93% 29.53 in 10.0 mi South 11.5 mph - N/A   Overcast
10:53 AM 36.0 °F 27.1 °F 32.0 °F 86% 29.55 in 10.0 mi South 13.8 mph - N/A   Overcast
11:53 AM 35.1 °F 25.9 °F 32.0 °F 89% 29.56 in 10.0 mi SSW 13.8 mph - N/A   Overcast
12:18 PM 35.6 °F 27.1 °F 32.0 °F 87% 29.55 in 10.0 mi SSW 12.7 mph - N/A   Overcast
12:53 PM 36.0 °F 26.7 °F 30.9 °F 82% 29.56 in 10.0 mi SSW 15.0 mph - N/A   Overcast
1:53 PM 36.0 °F 27.1 °F 30.9 °F 82% 29.56 in 10.0 mi SSW 13.8 mph - N/A   Overcast
2:53 PM 35.1 °F 26.4 °F 30.9 °F 85% 29.57 in 10.0 mi South 12.7 mph 23.0 mph N/A   Overcast
3:29 PM 35.6 °F 28.0 °F 30.2 °F 81% 29.55 in 2.0 mi South 10.4 mph - 0.00 in Snow Light Snow
3:37 PM 33.8 °F 26.4 °F 30.2 °F 87% 29.56 in 1.8 mi South 9.2 mph - 0.00 in Snow Light Snow
3:45 PM 33.8 °F 25.8 °F 30.2 °F 87% 29.56 in 1.8 mi South 10.4 mph - 0.00 in Snow Light Snow
3:53 PM 34.0 °F 26.6 °F 30.9 °F 89% 29.57 in 1.8 mi South 9.2 mph - 0.00 in Snow Light Snow
4:53 PM 33.1 °F 25.5 °F 30.9 °F 92% 29.58 in 0.8 mi South 9.2 mph - 0.04 in Snow Light Snow
5:31 PM 33.8 °F 26.4 °F 30.2 °F 87% 29.57 in 1.0 mi South 9.2 mph - 0.04 in Snow Light Snow
5:53 PM 33.1 °F 24.9 °F 30.9 °F 92% 29.60 in 1.0 mi South 10.4 mph - 0.05 in Snow Light Snow
6:53 PM 33.1 °F 24.9 °F 30.9 °F 92% 29.60 in 2.0 mi South 10.4 mph - 0.05 in Snow Light Snow
7:53 PM 33.1 °F 24.9 °F 30.9 °F 92% 29.60 in 2.0 mi South 10.4 mph - 0.02 in Snow Light Snow
8:03 PM 33.8 °F 25.8 °F 30.2 °F 87% 29.58 in 1.5 mi South 10.4 mph - 0.00 in Snow Light Snow
8:43 PM 33.8 °F 25.3 °F 30.2 °F 87% 29.58 in 2.0 mi South 11.5 mph - 0.01 in Snow Light Snow
8:53 PM 33.1 °F 24.9 °F 30.9 °F 92% 29.60 in 2.0 mi South 10.4 mph - 0.01 in Snow Light Snow
9:37 PM 33.8 °F 25.3 °F 30.2 °F 87% 29.58 in 3.0 mi SSW 11.5 mph - 0.00 in Snow Light Snow
9:53 PM 33.1 °F 25.5 °F 30.9 °F 92% 29.60 in 3.0 mi South 9.2 mph - 0.00 in Snow Light Snow
10:53 PM 34.0 °F 26.6 °F 30.9 °F 89% 29.59 in 9.0 mi SSW 9.2 mph - 0.00 in Snow Light Snow
11:53 PM 33.1 °F 26.1 °F 30.9 °F 92% 29.58 in 10.0 mi SSW 8.1 mph - 0.00 in   Overcast